sat.trackr.live / text

‹ back to catalog

STARLINK-31409

NORAD 59299 · 2024-056D

PAYLOAD ACTIVE UNKNOWN

§ Identity

Operator
Country
US
Launch date
2024-03-24
Launch site
AFETR
Launch vehicle
Mass (kg)
RCS (m²)

Purposes: comms

External: N2YO · Heavens-Above · Gunter

§ Orbital elements

Epoch: 2026-09-20T12:55:29.174304Z

Period
94.27 min
Inclination
42.9994°
Eccentricity
0.0000663
Mean motion
15.27577294 rev/d
Perigee alt
482.6 km
Apogee alt
483.5 km
Semi-major
6,861.2 km
B*
-1.7837e-5
RAAN
203.4103°
Arg perigee
274.6352°
Mean anomaly
85.4424°
Rev number
14,115

§ Raw data

STARLINK-314091 59299U 24056D   26263.53853211 -.00000753  00000+0 -17837-4 0  99942 59299  42.9994 203.4103 0000663 274.6352  85.4424 15.27577294141158

JSON: /api/v1/satellites/59299 · /tle

For live sub-satellite position, see the globe view (requires WebGL).

§ Visibility from observer

Set your observer location to see the next 7 days of passes ≥ 10°. The values pass through the URL so the page stays shareable.

No JS? Fill the form by hand. The geolocation button needs JavaScript.